Location: Toronto
(43.6672°N, 79.4170°W)
Time: 04:17:22
(UTC-05:00)

ISS - Visible Passes

Search period start: 22 December 2014 00:00
Search period end: 01 January 2015 00:00
Orbit: 404 x 414 km, 51.6° (Epoch: 22 December)

Date Brightness Start Highest point End Pass type
(mag) Time Alt. Az. Time Alt. Az. Time Alt. Az.
22 Dec -2.5 18:39:48 10° NW 18:42:17 42° NNW 18:42:17 42° NNW visible
23 Dec -2.6 17:49:01 10° NW 17:52:07 37° NNE 17:53:54 20° E visible
23 Dec -0.5 19:25:38 10° WNW 19:26:41 18° W 19:26:41 18° W visible
24 Dec -3.1 18:34:37 10° WNW 18:37:53 67° SW 18:38:28 52° SSE visible
25 Dec -3.4 17:43:41 10° NW 17:46:59 72° NNE 17:50:15 10° ESE visible
25 Dec -0.5 19:21:08 10° W 19:23:11 16° SW 19:23:19 16° SW visible
26 Dec -1.2 18:29:34 10° WNW 18:32:25 27° SW 18:35:14 10° SSE visible
27 Dec -2.3 17:38:20 10° WNW 17:41:31 49° SW 17:44:41 10° SE visible
28 Dec 0.1 18:25:23 10° WSW 18:26:36 12° SW 18:27:48 10° SSW visible
29 Dec -0.3 17:33:12 10° W 17:35:44 21° SW 17:38:14 10° S visible
